Location: Newark
(31.9000°N, 35.2000°E)
Time: 13:07:42
(UTC+00:00)

OTV 5 (USA 277) - Visible Passes

Search period start: 17 October 2019 00:00
Search period end: 27 October 2019 00:00
Orbit: 310 x 324 km, 54.5° (Epoch: 08 October)

Date Brightness Start Highest point End Pass type
(mag) Time Alt. Az. Time Alt. Az. Time Alt. Az.
18 Oct ? 03:08:07 10° N 03:09:30 13° NE 03:10:52 10° ENE visible
19 Oct ? 03:21:39 10° NNW 03:24:13 36° NE 03:26:45 10° ESE visible
21 Oct ? 02:18:03 17° NNE 02:19:00 20° NE 02:21:08 10° E visible
22 Oct ? 02:32:55 44° NNW 02:33:37 73° NE 02:36:18 10° SE visible
23 Oct ? 02:47:56 25° WSW 02:48:04 26° SW 02:50:24 10° S visible
25 Oct ? 16:22:24 10° SSW 16:23:32 21° S 16:23:32 21° S visible
26 Oct ? 16:36:51 10° WSW 16:38:28 28° W 16:38:28 28° W visible
